sat.trackr.live / text

‹ back to catalog

STARLINK-31649

NORAD 59390 · 2024-062S

PAYLOAD ACTIVE UNKNOWN

§ Identity

Operator
Country
US
Launch date
2024-04-02
Launch site
AFWTR
Launch vehicle
Mass (kg)
RCS (m²)

Purposes: comms

External: N2YO · Heavens-Above · Gunter

§ Orbital elements

Epoch: 2026-05-24T17:37:41.435040Z

Period
94.11 min
Inclination
53.1598°
Eccentricity
0.0001198
Mean motion
15.30192456 rev/d
Perigee alt
474.4 km
Apogee alt
476.1 km
Semi-major
6,853.4 km
B*
4.1617e-5
RAAN
262.4809°
Arg perigee
77.1599°
Mean anomaly
282.9536°
Rev number
12,131

§ Raw data

STARLINK-316491 59390U 24062S   26144.73450735  .00000873  00000+0  41617-4 0  99912 59390  53.1598 262.4809 0001198  77.1599 282.9536 15.30192456121316

JSON: /api/v1/satellites/59390 · /tle

For live sub-satellite position, see the globe view (requires WebGL).

§ Visibility from observer

Set your observer location to see the next 7 days of passes ≥ 10°. The values pass through the URL so the page stays shareable.

No JS? Fill the form by hand. The geolocation button needs JavaScript.